Starlink 6277

operational
NORAD ID: 56399 Int'l Des: 2023-061 Owner: SPXS Country: US Constellation: starlink
LEOCIRCULAR

Starlink 6277について

説明を読み込み中...

リアルタイム位置

3D地球を読み込み中...

次回通過

高度履歴

Altitude vs Time

uPlot chart will show altitude changes over time

軌道要素

1 56399U 23061AB 25308.26696793 .00000531 00000-0 54412-4 0 9999
2 56399 43.0028 146.3414 0001169 270.6963 89.3746 15.02534875138036
Epoch: Nov 4, 2025 • Age: 10 hours

現在のステータス

高度 558.4 km
速度 7.58 km/s
衛星直下点 5.06°N, 134.75°W
打ち上げ日 May 4, 2023
運用期間 2.5 years
タイプ internet

技術仕様

分類 Payload
質量 305.00 kg
乾燥質量 290.00 kg
総質量 305.00 kg
長さ 0.20 m
直径 2.80 m
スパン 9.00 m
形状 Box + pan
製造者 SPXS
バスタイプ Starlink
フェーズステータス In Orbit
所有者/国 SPXS/US

大規模コンステレーション

Loading constellations...